RH
20 18 18 17 16 16 16 16 16 16 16 16 16 16 16 15 15 15 15 15 14 14 13 12 10 10 9 8 8 8 8 7 7 7 7 7 7 7 7 7 7 6 6 6 6 6 5 5 5 5 5 5 5 5 5 5 5 5 4 4 4 4 4 4 4 4 4 4 4 4 4 4 4 5 6 8 13 20 28 38 47 56 64 70 74 78
18 18 18 17 16 16 16 16 16 16 16 16 16 16 16 16 16 15 15 15 15 14 13 12 10 10 9 8 8 8 8 8 8 8 8 8 8 8 8 8 8 8 7 7 6 6 6 6 6 6 6 5 5 5 5 5 5 5 5 5 4 4 4 4 4 4 4 4 4 4 4 4 4 4 4 5 6 8 12 19 28 37 47 56 63 70
18 18 18 17 17 16 16 16 16 16 16 16 16 16 16 16 16 16 16 15 15 14 13 12 10 10 10 9 9 9 9 8 8 8 9 9 9 9 9 8 8 8 8 8 7 7 6 6 6 6 6 6 6 6 6 5 5 5 5 5 5 5 4 4 4 4 4 4 4 4 4 4 4 5 5 5 5 5 6 8 12 18 26 36 45 54
18 18 18 17 17 16 16 16 16 17 17 17 17 17 17 16 16 16 16 16 15 14 12 11 10 10 10 10 10 10 10 10 10 10 10 10 10 10 10 10 10 9 9 8 8 8 7 7 7 6 6 6 6 6 6 6 6 6 6 6 5 5 5 5 5 5 5 5 5 5 4 4 4 5 5 5 5 5 5 5 6 8 11 18 25 34
18 18 18 17 17 17 17 17 17 18 18 18 18 18 17 17 17 16 16 16 14 14 12 11 11 10 10 10 10 10 10 10 11 11 11 11 11 11 11 10 10 10 10 10 9 8 8 8 8 7 7 7 6 6 6 6 6 6 6 6 6 6 6 6 6 5 5 5 5 5 5 5 5 5 5 5 5 5 6 6 6 6 6 8 12 16
18 18 18 18 17 17 17 17 18 18 18 18 18 18 18 18 17 17 16 16 14 13 12 12 11 11 10 11 11 11 11 11 12 12 12 12 12 12 12 12 11 11 11 10 10 10 9 9 8 8 8 8 8 7 7 7 7 7 7 6 6 6 6 6 6 6 6 6 6 6 5 5 5 5 5 5 5 5 6 6 6 6 6 7 7 8
18 18 18 18 18 18 18 18 18 18 18 19 18 18 18 18 18 17 16 15 14 13 12 12 11 11 11 11 12 12 12 12 12 12 13 13 13 13 12 12 12 12 12 11 11 10 10 10 10 9 9 8 8 8 8 8 8 8 8 7 7 7 7 7 7 6 6 6 6 6 6 6 5 5 5 5 5 6 6 6 6 7 7 7 7 8
18 18 18 18 18 18 18 18 18 19 19 19 19 19 18 18 18 17 16 15 14 13 12 12 12 12 12 12 12 13 13 13 13 14 14 14 14 14 13 13 13 13 12 12 12 11 11 11 10 10 10 10 10 9 9 9 8 8 8 8 8 8 8 8 7 7 7 7 7 6 6 6 6 6 6 6 6 6 6 6 6 7 7 8 8 8
19 19 18 18 18 18 18 19 19 19 20 20 19 19 19 18 18 17 16 15 14 13 13 13 13 13 13 13 14 14 14 14 14 14 14 14 14 14 14 14 14 13 13 13 12 12 12 12 11 11 11 10 10 10 10 10 10 9 9 9 8 8 8 8 8 8 8 7 7 7 6 6 6 6 6 6 6 6 6 6 7 7 8 8 8 8
19 19 19 19 19 19 19 20 20 20 20 20 20 19 19 18 18 17 16 15 14 14 13 13 14 14 14 14 14 15 15 15 15 15 15 15 15 15 15 14 14 14 14 13 13 13 12 12 12 12 12 12 11 11 11 10 10 10 10 10 10 9 9 9 9 8 8 8 7 7 7 6 6 6 6 6 6 6 7 7 7 8 8 8 8 8
20 19 19 19 19 20 20 20 20 20 20 20 20 19 19 18 18 16 16 15 14 14 14 14 14 15 15 15 16 16 16 16 16 16 16 16 16 15 15 15 14 14 14 14 14 14 13 13 13 13 13 12 12 12 12 11 11 11 10 10 10 10 10 10 10 9 8 8 8 7 7 6 6 6 6 6 7 7 7 8 8 8 8 9 9 9
20 20 20 20 20 20 20 21 21 21 21 20 20 20 19 18 17 16 16 16 15 15 14 15 15 16 16 16 16 17 17 17 17 17 16 16 16 16 15 15 15 14 14 14 14 14 14 14 14 14 13 13 13 12 12 12 12 12 12 12 12 12 12 11 10 10 9 8 8 7 7 7 7 7 7 7 7 7 8 8 8 8 8 9 9 10
20 20 20 20 21 21 21 22 22 21 21 20 20 20 19 18 18 16 16 16 16 15 16 16 16 16 17 17 18 18 18 18 18 18 17 16 16 16 16 16 15 15 15 15 14 14 14 14 14 14 14 14 13 13 13 12 12 13 13 13 13 13 12 12 11 10 9 8 8 7 7 7 7 7 8 8 8 8 8 8 8 8 8 8 8 9
22 21 21 21 22 22 22 22 22 22 21 21 20 20 19 18 18 17 16 16 16 16 16 17 18 18 18 18 18 19 19 19 18 18 18 17 16 16 16 16 16 16 15 15 15 15 15 15 14 14 14 14 14 14 14 14 14 14 15 15 15 14 13 12 11 10 8 8 8 8 8 8 8 8 8 8 8 8 8 8 8 8 8 8 8 8
23 22 22 22 22 22 22 22 22 22 22 21 20 20 19 18 18 18 17 17 17 17 18 18 18 19 19 19 19 20 20 20 19 18 18 17 16 16 16 16 16 16 16 16 16 16 15 15 15 15 15 15 15 15 16 16 16 16 17 16 16 15 13 12 10 9 8 8 8 8 8 8 8 9 9 9 9 8 8 8 8 8 7 7 7 7
24 23 23 23 23 23 23 23 22 22 22 21 20 20 20 19 18 18 18 18 18 18 18 19 20 20 20 20 20 20 20 20 19 18 18 18 17 17 17 17 17 17 17 16 16 16 16 16 16 16 16 17 17 18 18 18 19 18 18 17 16 14 12 11 10 8 8 8 8 8 9 9 10 10 10 9 9 8 8 8 7 7 6 6 6 6
24 23 23 23 23 23 23 23 22 22 22 21 21 20 20 20 19 19 19 19 19 20 20 20 21 21 21 21 21 21 20 20 19 19 18 18 18 18 18 18 18 18 18 18 18 18 18 18 19 19 19 20 20 20 20 20 20 19 18 16 15 13 11 10 9 8 8 8 8 9 10 10 10 10 10 9 9 8 8 7 7 6 6 6 5 5
24 23 23 24 24 24 23 23 23 22 22 22 22 21 21 20 20 20 20 20 20 21 22 22 22 22 22 22 22 22 21 20 20 19 19 19 19 19 19 19 20 20 20 20 20 20 21 21 21 22 22 22 22 22 22 21 20 19 17 15 13 11 10 8 8 8 8 8 9 10 10 10 10 10 10 9 8 8 7 6 6 6 5 5 5 5
24 24 24 24 24 24 24 23 23 23 23 23 22 22 22 22 21 21 21 22 22 22 23 23 24 24 23 23 22 22 21 21 20 20 20 20 21 21 21 21 22 22 22 23 23 23 23 23 23 23 23 23 23 23 22 21 19 18 15 13 11 10 8 8 8 8 9 10 10 10 11 10 10 10 9 8 8 7 6 6 5 5 5 5 5 5
24 24 24 24 24 24 24 24 24 24 24 24 24 24 24 23 23 23 23 23 23 24 24 24 24 24 24 24 23 22 22 22 22 22 22 22 22 23 22 23 24 24 24 24 24 24 25 24 24 24 24 24 24 24 22 20 18 16 13 11 10 8 8 8 8 9 10 10 11 11 11 11 10 10 8 8 7 6 6 5 5 5 5 5 5 5
25 25 24 24 24 24 24 24 24 24 24 24 24 24 24 24 24 24 24 24 25 25 25 26 25 25 24 24 24 23 23 23 23 24 24 24 24 24 24 25 26 26 26 26 26 26 26 26 26 26 26 25 25 24 22 20 17 14 12 10 8 8 8 8 9 10 10 11 12 12 11 11 10 9 8 7 6 6 5 5 5 5 5 5 5 5
26 25 25 25 25 25 25 25 25 25 26 26 26 26 26 26 26 26 26 26 26 26 26 26 26 26 25 24 24 24 24 24 25 26 27 27 27 27 26 27 27 28 28 27 27 27 27 27 27 27 26 26 26 24 22 19 16 13 10 9 8 8 8 9 10 10 12 12 12 12 12 10 10 8 7 6 6 5 5 5 5 5 5 5 6 6
26 26 26 26 26 26 26 26 26 26 26 27 27 27 27 27 27 27 27 27 27 28 27 27 26 26 26 25 25 25 26 26 27 28 29 30 30 30 29 29 29 29 29 28 28 28 28 28 28 28 28 27 26 24 21 18 14 11 9 8 8 8 8 10 10 12 12 13 13 12 11 10 9 8 7 6 5 5 5 5 5 5 5 6 6 6
26 26 26 26 26 26 26 27 27 28 28 28 28 28 28 28 28 28 28 28 28 28 28 28 27 26 26 26 26 26 27 28 30 31 32 33 33 32 31 31 30 30 30 29 29 30 30 30 30 30 30 28 26 23 20 16 13 10 8 8 8 8 10 10 12 13 14 14 13 12 11 10 8 7 6 6 5 5 5 5 5 5 6 6 6 6
27 27 27 27 27 27 28 28 29 29 30 30 29 29 29 29 29 29 30 30 29 29 29 28 28 27 27 27 28 29 30 30 32 33 34 35 35 34 33 32 32 32 31 30 30 31 32 32 32 32 30 28 26 22 18 14 12 10 8 8 8 9 10 12 13 14 14 14 13 12 11 9 8 7 6 5 5 5 5 5 5 5 6 6 6 6
28 28 28 28 28 29 30 30 30 31 31 31 31 31 31 31 31 31 31 30 30 30 29 29 29 29 29 30 31 32 32 33 34 35 36 37 37 36 34 33 32 32 32 32 32 32 34 34 34 33 32 28 24 20 16 13 10 9 8 8 9 10 11 13 14 15 15 14 13 12 10 9 8 6 6 5 5 5 5 5 6 6 6 6 6 6
29 29 30 30 30 31 32 32 32 32 33 33 33 33 33 33 33 32 32 32 31 31 31 31 32 32 32 33 34 34 35 36 36 37 38 38 38 38 36 34 34 33 33 33 33 34 35 36 36 34 32 28 24 19 15 12 10 8 8 9 10 11 13 14 16 16 16 15 13 11 10 8 7 6 6 5 5 5 5 6 6 6 6 6 6 6
31 32 32 32 33 34 34 34 34 34 34 34 35 35 35 35 34 34 34 33 33 33 34 34 35 36 36 37 37 38 38 38 38 38 38 39 39 38 36 35 34 34 34 34 35 35 36 37 36 34 31 26 22 18 13 11 10 9 9 10 11 13 14 16 16 17 16 15 13 11 9 8 7 6 6 5 5 6 6 6 6 6 6 6 7 7
34 34 35 35 35 36 36 36 36 36 36 36 37 37 37 36 36 36 35 35 36 36 37 38 38 39 40 40 40 40 40 40 39 39 39 39 39 38 36 35 35 35 35 36 37 37 38 37 36 34 30 25 20 16 12 10 10 10 10 11 12 14 16 17 18 18 16 14 12 10 8 7 6 6 6 6 6 6 6 6 6 6 6 7 7 8
37 38 38 38 37 37 37 37 37 38 38 38 39 39 38 38 38 38 38 38 39 40 40 41 42 42 43 43 43 43 42 41 40 39 38 39 39 37 36 36 36 36 36 38 40 40 40 38 36 33 29 24 18 14 11 10 10 10 11 13 14 16 18 18 18 18 16 14 12 10 8 7 6 6 6 6 6 6 6 6 6 7 7 7 8 8
40 40 40 39 39 38 38 39 39 40 40 40 40 40 40 40 40 40 40 41 42 43 44 44 45 45 45 46 46 46 44 42 40 38 38 38 38 37 36 37 37 38 38 40 42 43 43 40 37 33 28 22 17 13 11 10 10 12 13 14 16 18 19 20 19 18 16 14 12 10 8 7 6 6 6 6 6 7 7 7 7 7 7 8 8 8
42 41 41 40 40 40 40 41 42 42 42 43 42 42 42 42 42 43 44 44 45 46 46 47 47 47 47 47 47 46 44 42 40 38 38 38 37 37 37 38 40 40 40 42 44 44 45 42 38 33 27 21 16 12 10 10 11 12 14 16 18 19 20 20 20 18 16 14 11 9 7 6 6 6 6 7 7 7 7 7 8 8 8 8 8 9
43 42 42 42 42 43 43 44 44 45 45 46 45 45 45 45 45 46 47 48 48 49 50 50 50 50 49 48 46 45 43 41 39 38 37 38 38 38 39 40 42 43 44 45 46 46 46 43 39 34 26 20 15 12 10 10 11 13 15 17 19 20 21 21 20 18 16 13 11 8 7 6 6 6 6 7 7 8 8 8 8 8 8 8 9 9
45 45 44 45 45 46 46 47 48 48 49 49 48 48 48 48 49 49 50 50 51 52 52 52 52 51 50 48 46 44 41 40 38 37 37 38 40 41 42 44 45 46 47 48 49 48 48 44 39 33 26 20 15 12 10 10 12 13 15 18 20 22 22 22 20 18 16 13 10 8 7 6 6 6 7 7 8 8 8 8 8 8 8 9 10 10
48 48 48 48 49 50 50 51 52 52 53 52 52 52 52 52 52 53 53 54 54 54 54 53 52 52 50 48 46 44 41 39 38 37 38 40 42 44 46 47 48 49 50 51 51 50 49 44 39 32 26 20 15 12 11 11 12 13 15 18 20 22 23 22 20 18 15 12 10 8 6 6 6 7 7 8 8 8 8 8 8 9 9 10 10 10
53 53 53 54 54 54 55 56 56 57 57 56 56 56 55 56 56 56 57 57 57 56 56 54 53 51 49 47 45 43 42 40 39 38 40 42 44 47 49 50 51 52 53 54 53 52 49 44 37 30 24 20 16 14 12 12 13 14 16 18 20 22 23 22 20 17 14 11 8 7 6 6 6 7 8 8 8 8 8 9 9 10 10 10 10 11
59 60 60 60 60 60 60 61 61 61 60 60 60 60 59 59 60 60 60 60 59 58 57 55 52 50 48 46 44 43 42 40 40 40 42 44 46 49 51 52 53 54 55 55 54 52 48 42 35 28 22 19 16 15 14 14 14 16 17 18 20 22 23 22 19 16 13 10 8 6 6 6 7 8 8 8 8 9 9 9 10 10 10 11 12 12
65 66 66 66 66 66 66 66 65 64 64 63 63 63 62 62 62 62 62 62 61 60 58 55 52 50 47 45 44 42 42 42 42 43 44 45 48 50 52 54 55 56 56 56 54 51 46 39 32 26 21 18 17 16 15 16 16 18 19 20 22 23 23 21 18 15 12 9 8 6 6 6 7 8 8 8 9 9 9 10 10 10 11 12 13 14
69 70 70 70 69 69 69 68 68 66 66 66 65 65 65 65 64 64 64 63 61 60 57 54 51 49 47 46 44 43 43 43 44 44 46 47 49 51 54 56 57 58 58 56 53 48 42 35 28 24 20 18 17 16 16 18 19 20 22 23 24 24 23 21 18 14 11 9 7 6 6 7 7 8 8 9 9 9 9 10 10 11 12 12 14 14
71 72 72 71 70 70 69 69 68 67 67 66 66 66 66 66 66 65 64 63 61 59 56 54 51 50 48 46 45 44 44 44 45 46 47 49 50 53 55 58 60 60 59 56 51 45 38 30 24 20 18 18 18 18 18 19 21 23 25 26 26 26 23 20 17 14 11 8 7 6 6 7 8 8 9 9 9 10 10 10 11 11 12 13 14 15
71 72 71 70 70 69 68 68 67 67 67 67 67 67 67 67 66 66 65 63 61 59 56 54 52 50 48 47 46 45 45 46 46 48 49 51 53 55 58 60 62 62 60 56 49 42 33 27 22 19 17 17 18 18 19 21 23 25 27 28 28 26 22 19 16 13 10 8 7 6 6 7 8 8 9 9 10 10 10 11 12 12 13 13 14 14
71 71 70 70 69 68 68 67 67 66 67 68 68 68 68 68 67 66 65 63 61 60 57 55 53 51 49 47 46 46 46 47 48 49 51 53 56 58 61 63 64 62 60 54 46 38 30 24 20 18 17 17 18 19 21 23 25 27 29 30 28 25 22 18 15 12 10 8 7 6 7 8 8 9 10 10 10 10 11 12 12 13 13 14 14 14
71 70 70 70 69 68 68 68 68 68 68 68 68 68 68 67 66 66 64 63 61 60 58 55 52 50 48 46 46 46 47 48 49 51 53 55 58 61 64 66 65 63 58 51 43 35 27 23 20 18 18 18 18 20 23 25 27 29 30 29 27 24 20 16 14 11 9 8 7 7 7 8 9 10 10 11 11 12 12 13 13 14 14 14 14 14
72 71 70 70 69 69 68 69 69 69 69 69 69 68 68 67 66 65 64 62 60 58 56 53 51 48 46 46 46 46 48 49 50 52 53 56 59 62 65 66 65 61 55 48 40 32 26 22 20 19 18 18 19 21 24 27 30 31 31 29 26 22 18 15 12 10 8 8 7 7 8 9 10 11 12 12 12 13 13 14 14 14 14 14 14 14
72 72 71 70 70 70 70 70 70 70 70 69 69 68 68 67 66 65 64 62 59 56 54 52 50 48 48 48 48 48 49 50 52 53 54 56 59 62 64 65 62 58 52 44 37 30 26 24 22 20 19 19 21 23 26 28 31 32 31 28 25 21 18 14 12 10 8 8 8 8 9 10 11 12 12 13 14 14 14 15 15 15 15 14 14 14
72 72 71 71 70 70 70 70 70 70 70 70 69 69 68 68 66 65 63 60 58 55 53 52 51 51 52 52 52 51 51 52 53 54 56 58 60 62 63 62 59 54 48 40 34 29 26 24 23 21 20 21 22 24 28 30 32 32 31 28 24 20 16 14 11 10 8 8 8 9 10 11 12 13 14 14 15 15 16 16 16 16 15 15 14 14
71 70 70 70 70 70 70 70 70 70 70 70 70 69 68 67 66 64 61 59 58 56 56 55 55 55 56 56 56 55 55 55 55 56 58 60 60 60 60 57 53 48 42 37 32 28 26 24 24 22 22 23 25 28 30 32 33 32 30 26 23 19 16 13 11 10 9 9 9 10 11 12 13 14 15 15 16 16 16 16 16 16 16 15 15 15
68 68 68 68 69 70 70 70 71 71 72 71 70 69 68 66 64 62 61 60 60 60 60 60 60 60 60 60 59 58 57 57 57 58 60 60 60 58 56 51 46 40 36 32 30 28 27 26 24 24 24 26 28 31 33 34 34 32 29 25 21 18 14 12 11 10 10 10 10 11 12 14 14 15 16 16 17 18 18 18 17 17 16 16 16 16
66 66 68 69 70 72 72 72 72 72 71 70 69 68 66 64 63 63 62 62 62 62 63 64 64 64 64 64 62 60 58 57 57 58 59 58 57 54 50 44 39 34 31 29 28 28 27 26 25 24 25 27 30 34 35 35 34 31 27 24 20 16 14 12 11 10 10 10 11 12 13 14 15 16 16 18 18 18 18 18 18 17 16 16 16 16
68 69 71 72 73 74 73 72 72 71 70 68 68 66 65 64 64 64 64 64 64 64 65 66 67 68 67 66 64 60 57 55 55 54 54 52 49 46 41 36 31 28 26 26 27 28 28 27 26 26 26 29 32 35 37 36 33 30 26 22 18 15 13 12 11 10 11 11 12 13 14 15 16 17 18 18 19 20 20 19 18 18 17 17 17 18
71 73 74 74 74 74 73 71 70 69 68 67 66 65 64 64 64 64 64 65 65 66 67 68 69 69 68 66 62 57 53 51 50 48 46 42 38 34 30 25 22 20 20 23 26 28 29 29 29 29 30 32 34 36 37 35 32 29 24 20 17 14 12 12 11 11 12 12 13 14 16 16 17 18 18 20 20 21 20 20 19 18 18 18 18 19
Wind_Speed
35 35 36 36 36 36 36 36 35 34 34 33 32 32 32 31 31 31 32 32 32 33 33 32 32 31 31 30 30 30 30 30 30 31 31 32 32 32 33 33 33 33 33 33 33 33 32 32 32 32 32 32 32 32 31 31 31 31 31 31 31 32 32 33 32 32 32 31 31 30 30 30 30 31 31 31 31 32 32 33 34 35 36 36 36 37
35 35 36 36 36 36 35 35 34 34 33 33 32 32 31 31 31 32 32 32 32 32 32 32 32 31 31 31 31 31 31 31 31 32 32 33 33 33 34 34 34 34 34 33 33 33 33 33 33 33 33 33 33 33 33 33 32 32 32 32 32 32 33 33 34 34 34 34 34 34 33 32 32 32 32 33 33 33 34 34 35 36 37 37 38 38
35 35 35 35 35 35 35 34 34 33 33 32 32 32 31 31 32 32 32 32 32 32 32 31 31 31 30 30 31 31 31 32 32 33 33 33 34 34 34 35 34 34 34 34 34 34 34 34 34 34 34 34 34 34 34 34 34 33 33 33 33 33 33 34 34 35 35 36 36 36 36 36 35 35 34 34 34 35 35 36 36 37 38 39 39 40
35 35 35 35 35 35 34 34 33 33 32 32 32 32 31 32 32 32 32 32 32 32 32 31 31 30 30 30 30 31 31 32 32 33 33 34 34 34 35 35 35 35 35 35 35 34 34 34 34 34 34 34 34 34 34 34 34 34 34 34 34 34 34 35 35 36 36 37 38 38 38 38 38 38 37 37 36 36 37 37 38 38 39 40 40 41
35 35 35 35 35 34 34 34 33 33 32 32 32 32 32 32 32 32 32 32 32 32 31 31 30 30 30 30 30 31 31 32 32 33 33 34 34 34 35 35 35 35 35 35 35 35 35 34 34 34 34 34 34 34 34 34 35 35 35 35 36 36 36 36 36 37 37 38 39 39 40 40 41 41 40 40 39 39 38 38 39 39 40 41 41 42
35 35 35 35 34 34 34 33 33 32 32 32 32 32 32 32 32 32 32 32 32 31 31 30 30 30 30 30 31 31 31 32 32 33 33 34 34 34 35 35 35 35 35 35 35 35 35 35 35 35 34 34 34 35 35 35 35 35 36 36 36 37 37 38 38 39 39 40 40 41 42 42 43 43 43 43 42 42 41 40 40 40 41 42 42 43
35 35 34 34 34 34 33 33 33 32 32 32 32 32 32 32 32 32 32 32 32 31 31 30 30 30 30 31 31 31 32 32 33 33 34 34 34 35 35 35 35 35 36 36 36 36 35 35 35 35 35 35 35 35 35 35 36 36 36 36 37 38 38 39 40 41 41 42 43 43 44 44 44 45 45 45 45 45 44 43 43 42 42 42 43 44
35 35 34 34 34 34 33 33 32 32 32 32 32 32 32 32 32 32 32 32 31 31 31 30 30 30 31 31 31 32 32 33 33 34 34 34 35 35 35 36 36 36 36 36 36 36 36 36 36 36 36 36 36 36 36 36 36 37 37 37 38 38 39 40 41 42 43 44 45 45 46 46 46 47 47 47 47 47 47 46 45 44 44 43 44 44
34 34 34 34 34 33 33 33 32 32 32 32 32 32 32 33 32 32 32 32 31 31 31 30 30 31 31 31 32 32 33 33 34 34 34 35 35 35 36 36 36 37 37 37 37 37 37 37 37 37 37 37 37 37 37 37 37 38 38 38 39 39 40 41 42 43 44 45 46 47 47 48 48 48 49 49 49 49 49 48 47 46 45 45 45 45
34 34 34 34 34 33 33 33 33 32 32 32 32 32 32 33 32 32 32 31 31 31 31 31 31 31 31 32 32 33 33 34 34 34 35 35 36 36 36 37 37 37 37 37 37 38 38 38 37 37 37 37 38 38 38 38 38 39 39 40 40 41 42 43 44 45 46 46 47 48 48 49 49 50 50 50 50 50 50 50 49 48 47 46 46 45
34 34 34 34 34 33 33 33 33 32 32 32 33 33 33 33 32 32 32 32 31 31 31 31 31 31 32 32 33 33 34 34 35 35 35 36 36 37 37 37 37 38 38 38 38 38 38 38 38 38 38 38 38 39 39 39 40 40 40 41 42 43 44 45 46 47 47 48 48 49 49 49 50 50 51 51 51 52 52 51 51 50 49 48 47 46
34 34 34 34 34 33 33 33 33 33 32 32 33 33 33 33 32 32 32 32 31 31 31 31 31 32 32 32 33 34 34 35 35 36 36 36 37 37 37 38 38 38 38 39 39 39 39 39 39 39 39 39 39 39 40 40 41 41 42 43 44 45 46 47 48 48 49 49 49 50 50 50 50 51 51 51 52 52 52 52 52 51 50 49 48 47
34 34 34 34 34 33 33 33 33 33 32 32 32 33 33 33 32 32 32 32 31 31 31 31 32 32 32 33 33 34 35 35 36 36 37 37 37 38 38 38 38 39 39 39 39 39 39 39 39 39 40 40 40 40 41 41 42 42 43 44 45 47 48 48 49 50 50 50 50 50 50 50 50 51 51 51 52 52 53 53 53 52 52 51 49 48
34 34 34 34 34 33 33 33 33 32 32 32 32 33 33 33 33 32 32 32 31 31 31 32 32 32 33 33 34 34 35 36 37 37 37 37 38 38 38 39 39 39 39 39 39 40 40 40 40 40 40 40 41 41 42 42 43 44 45 46 47 48 49 50 50 50 51 51 51 51 51 50 51 51 51 51 52 52 52 53 53 53 52 52 51 49
34 34 34 34 33 33 33 33 33 32 32 33 33 33 33 33 32 32 32 32 32 32 32 32 32 33 33 33 34 35 36 36 37 37 38 38 38 38 38 39 39 39 39 39 40 40 40 40 40 41 41 41 42 42 43 43 44 45 46 47 48 49 50 51 51 51 51 51 51 51 50 50 50 50 51 51 51 52 52 52 52 52 52 52 51 50
34 34 34 34 33 33 33 33 32 32 33 33 33 33 33 33 32 32 32 32 32 32 32 32 33 33 33 34 34 35 36 37 37 38 38 38 38 38 38 39 39 39 39 39 40 40 40 40 41 41 41 42 42 43 44 45 46 47 48 49 50 50 51 51 51 51 51 51 51 50 50 50 50 50 50 50 51 51 51 51 51 52 51 51 51 50
34 34 34 33 33 33 33 33 32 33 33 33 33 33 33 33 32 32 32 32 32 32 32 33 33 33 34 34 35 36 36 37 38 38 38 38 38 38 38 38 39 39 39 39 40 40 40 41 41 42 42 43 43 44 45 46 47 48 49 50 50 51 51 51 51 51 51 51 50 50 50 50 50 50 50 50 50 50 50 50 50 50 50 50 50 49
34 34 34 33 33 33 33 33 33 33 33 33 33 33 33 33 33 32 32 32 32 32 33 33 33 34 34 35 35 36 36 37 38 38 38 38 38 38 38 38 39 39 39 39 40 40 41 41 42 42 43 44 44 45 46 47 48 49 50 50 51 51 51 51 51 51 50 50 50 49 49 49 49 49 49 49 49 49 49 49 49 49 49 49 48 48
34 34 33 33 33 33 33 33 33 33 33 33 33 33 33 33 33 33 32 32 33 33 33 33 34 34 34 35 35 36 37 37 38 38 38 38 38 38 38 38 39 39 40 40 41 41 42 42 43 43 44 45 45 46 47 48 49 50 50 51 51 51 51 51 51 50 50 50 49 49 49 49 49 49 49 49 49 49 48 48 48 47 47 47 47 46
34 33 33 33 33 33 33 33 33 33 33 33 33 33 33 33 33 33 33 33 33 33 33 34 34 34 35 35 36 36 37 37 38 38 38 38 38 38 38 39 39 40 40 41 42 42 43 44 44 45 45 46 47 47 48 49 50 50 51 51 51 51 51 51 50 50 49 49 49 48 48 48 48 48 48 48 48 48 47 47 46 46 46 45 45 45
34 33 33 33 33 33 33 33 33 33 34 34 34 34 33 33 33 33 33 33 33 33 34 34 34 35 35 35 36 36 37 38 38 38 39 39 39 39 39 40 40 41 41 42 43 43 44 45 45 46 46 47 48 48 49 50 50 51 51 51 51 51 51 50 50 49 49 48 48 48 48 48 48 48 48 48 47 47 46 46 45 45 44 44 44 43
33 33 33 33 33 33 33 34 34 34 34 34 34 34 34 33 33 33 33 33 33 34 34 34 34 35 35 35 36 36 37 38 38 39 39 40 40 40 40 41 41 42 43 43 44 45 45 46 46 47 47 48 49 49 50 51 51 51 51 51 51 51 50 50 49 49 48 48 48 48 48 48 48 47 47 47 46 46 45 44 44 43 43 42 42 42
33 33 33 33 33 34 34 34 34 34 34 34 34 34 34 34 33 33 33 33 33 34 34 34 35 35 35 36 36 37 37 38 39 39 40 40 41 41 41 42 43 43 44 44 45 46 46 47 47 48 48 49 50 50 51 51 51 51 51 51 51 50 50 49 49 48 48 47 47 47 47 47 47 47 47 46 45 45 44 43 43 42 42 41 41 41
33 33 34 34 34 34 34 34 34 34 34 34 34 34 34 34 33 33 33 34 34 34 34 35 35 35 36 36 37 37 38 38 39 40 41 41 42 42 43 43 44 44 45 45 46 46 47 48 48 49 49 50 50 51 51 52 51 51 51 51 50 50 49 49 48 47 47 47 47 47 47 47 47 46 46 45 45 44 43 42 42 41 41 40 40 40
33 34 34 34 34 34 34 34 34 34 34 34 34 34 34 34 33 34 34 34 34 34 35 35 35 36 36 37 37 38 38 39 40 41 41 42 43 43 44 44 45 45 46 46 46 47 48 48 49 50 50 51 51 52 52 52 52 51 51 50 50 49 49 48 47 47 47 47 47 47 47 47 46 46 45 45 44 43 42 42 41 41 40 40 40 40
34 34 34 34 34 34 34 34 34 34 34 34 34 34 34 34 34 34 34 34 34 34 35 35 35 36 37 38 38 39 39 40 41 41 42 43 44 45 45 45 46 46 47 47 47 48 48 49 50 50 51 52 52 52 52 52 51 51 50 50 49 49 48 47 47 47 47 47 47 47 47 46 46 45 45 44 43 42 42 41 41 40 40 40 40 40
34 34 34 34 34 34 34 34 34 34 33 33 33 33 33 34 34 34 34 34 34 35 35 35 36 37 38 38 39 40 40 41 42 42 43 44 45 45 46 46 47 47 47 48 48 48 49 49 50 51 52 52 53 53 52 52 51 51 50 49 49 48 47 47 47 46 46 46 47 47 46 46 46 45 44 44 43 42 41 41 40 40 40 40 40 40
34 34 34 34 34 34 34 34 33 33 33 33 33 33 33 33 34 34 34 34 34 35 35 36 37 38 39 39 40 41 41 42 42 43 44 45 45 46 46 47 47 47 48 48 49 49 49 50 51 52 53 53 53 53 53 52 51 50 50 49 48 48 47 47 46 46 46 46 47 46 46 46 45 45 44 43 42 42 41 41 40 40 40 40 40 40
34 34 34 34 34 34 34 33 33 33 32 32 32 33 33 33 33 33 34 34 35 35 36 37 38 39 40 41 41 42 42 43 43 44 45 45 46 46 47 47 48 48 48 49 49 50 50 50 51 52 53 53 54 53 53 52 51 50 49 49 48 47 47 46 46 46 46 46 46 46 46 45 45 44 43 43 42 41 41 40 40 40 40 40 40 40
34 34 34 34 34 34 34 33 33 33 32 32 32 33 33 33 33 34 34 35 36 36 37 38 39 40 41 42 42 43 43 43 44 44 45 45 46 47 47 48 48 49 49 49 50 50 51 51 52 52 53 53 53 53 52 52 51 50 49 48 48 47 47 46 46 46 46 46 46 46 46 45 44 44 43 42 42 41 41 41 40 40 40 40 40 41
33 34 34 34 34 34 33 33 33 33 33 33 33 33 33 33 34 34 35 36 37 38 39 40 40 41 42 43 43 43 43 44 44 45 45 46 46 47 48 48 49 49 49 50 50 51 51 52 53 53 53 53 53 53 52 51 51 50 49 48 48 47 47 46 46 46 46 46 46 46 45 45 44 43 43 42 42 41 41 40 40 40 40 41 41 41
33 33 33 33 33 33 33 33 33 33 33 33 33 34 34 34 35 35 36 37 38 39 40 41 42 42 43 43 43 43 43 44 44 45 46 46 47 48 48 49 49 50 50 50 50 51 52 53 53 54 54 53 53 52 52 51 50 49 49 48 47 47 47 46 46 46 46 46 46 46 45 44 44 43 42 42 41 41 41 40 40 40 41 41 41 41
33 33 33 33 33 33 34 34 34 34 34 34 34 35 35 35 36 37 38 39 40 41 41 42 42 43 43 43 43 43 44 44 45 45 46 47 48 48 49 50 50 50 51 51 51 52 52 53 54 55 54 54 53 52 52 51 50 49 48 48 47 47 47 47 46 46 46 46 46 45 45 44 43 43 42 41 41 41 40 40 40 40 41 41 41 42
33 33 33 33 33 34 34 34 34 35 35 35 35 36 36 37 37 38 39 40 41 42 42 43 43 43 43 43 44 44 44 44 45 46 47 48 48 49 50 50 50 51 51 51 52 52 53 54 54 55 55 55 54 53 52 51 50 49 48 47 47 47 47 47 46 46 46 46 45 45 44 43 43 42 42 41 41 40 40 40 40 41 41 41 42 42
33 33 33 34 34 34 35 35 35 36 36 36 37 37 37 38 39 40 40 41 42 43 43 43 44 44 44 44 44 44 45 45 46 47 48 48 49 50 51 51 51 51 52 52 52 53 54 54 55 55 55 55 55 54 52 51 50 49 48 47 47 47 47 46 47 46 46 46 45 44 43 43 42 42 41 41 40 40 40 40 40 41 41 41 42 42
33 34 34 34 35 35 35 36 36 37 37 37 38 38 39 39 40 41 41 42 43 43 43 44 44 44 44 44 45 45 46 47 47 48 49 49 50 51 51 51 52 52 52 52 53 54 54 55 55 56 56 55 55 54 53 52 50 49 48 47 46 46 46 46 46 46 46 45 44 44 43 42 41 41 41 40 40 40 40 40 40 41 41 41 42 43
34 34 35 35 35 36 36 37 37 37 38 38 39 39 40 40 41 42 42 43 43 44 44 44 44 44 45 45 46 47 47 48 49 49 50 50 51 51 52 52 52 52 52 53 54 54 55 56 56 56 56 55 55 54 53 52 51 50 49 47 46 46 46 46 46 46 45 45 44 43 42 41 41 40 40 40 40 40 40 40 40 41 41 42 42 43
35 35 35 36 36 37 37 37 38 38 39 39 39 40 40 41 42 42 43 43 44 44 44 44 45 45 46 46 47 48 49 50 50 51 51 52 52 52 52 53 53 53 53 54 54 55 56 56 56 56 56 56 55 54 53 52 51 51 50 48 47 46 46 45 45 45 45 44 43 42 41 40 40 40 40 39 39 39 39 40 40 41 41 42 43 43
35 36 36 36 37 37 38 38 38 39 39 40 40 41 41 42 42 43 43 44 44 44 44 45 46 46 47 48 49 49 50 51 51 52 52 53 53 53 53 53 53 54 54 54 55 56 56 56 56 56 56 56 55 54 53 52 51 51 50 49 48 47 46 46 45 45 44 43 42 41 41 40 39 39 39 39 39 39 39 39 40 41 41 42 43 44
36 36 37 37 37 38 38 38 39 39 40 40 41 41 42 42 43 43 44 44 44 45 45 46 47 48 48 49 50 51 51 52 52 53 53 53 53 53 53 53 54 54 55 55 56 56 56 57 57 56 56 55 54 54 53 52 51 51 50 49 49 48 47 46 46 45 44 43 42 40 40 39 39 38 38 38 38 38 39 39 40 41 41 42 43 44
37 37 37 37 38 38 38 39 39 40 40 41 41 42 42 43 43 44 44 44 45 46 46 47 48 49 50 50 51 51 52 52 53 53 54 54 54 54 54 54 54 54 55 56 56 57 57 57 57 56 56 55 54 53 52 51 51 50 50 49 49 49 48 47 46 45 44 43 41 40 39 38 38 38 37 37 38 38 39 39 40 41 42 42 43 44
37 37 38 38 38 39 39 39 40 40 41 41 42 42 43 43 44 44 44 45 46 47 47 48 49 50 51 51 52 52 52 53 54 54 54 54 54 54 54 54 54 55 56 56 57 57 57 57 57 56 56 55 54 53 52 51 51 50 50 49 49 49 49 48 47 46 44 43 41 39 38 38 37 37 37 37 37 38 38 39 40 41 42 43 43 44
38 38 38 38 39 39 39 40 40 41 41 42 42 42 43 43 44 44 45 46 47 48 48 49 50 50 51 52 52 53 53 54 54 54 54 54 54 54 54 54 54 55 56 57 57 57 58 57 57 56 56 55 53 52 51 51 50 50 49 49 49 49 49 48 47 46 44 43 41 39 38 37 36 36 36 37 37 38 39 40 41 42 43 43 44 44
38 38 39 39 39 40 40 41 41 41 42 42 42 43 43 44 44 45 46 47 47 48 49 49 50 51 52 52 53 53 54 54 55 55 55 54 54 54 54 54 55 56 57 57 57 58 58 58 57 56 55 54 53 52 51 50 50 49 49 49 49 49 48 48 47 46 44 42 40 39 37 36 36 36 36 36 37 38 39 40 41 42 43 44 44 44
39 39 39 39 40 40 41 41 41 42 42 42 42 43 44 44 45 46 47 47 48 48 49 50 51 52 52 53 54 54 55 55 55 55 55 54 54 54 54 55 56 57 58 58 58 58 58 57 57 56 55 54 52 51 50 50 50 49 49 49 49 48 48 47 46 45 43 41 40 38 37 36 36 36 36 36 37 38 39 40 41 42 43 44 44 44
39 39 39 40 40 41 41 42 42 42 42 42 43 44 44 45 46 46 47 47 48 49 49 50 51 52 53 54 55 55 55 55 55 55 55 54 54 54 54 55 56 57 58 59 59 59 58 57 57 56 55 54 52 51 50 49 49 49 49 49 49 48 48 47 45 44 42 40 39 37 36 36 35 35 36 36 37 38 39 40 41 42 43 43 43 44
39 39 39 40 41 41 42 42 42 42 43 43 44 44 45 46 46 46 47 47 48 49 50 52 53 54 55 55 56 56 56 56 55 55 55 54 54 54 55 56 57 58 59 59 59 59 58 57 56 56 54 53 52 51 50 50 49 49 49 49 48 48 47 46 44 43 41 39 37 36 36 35 35 35 35 36 36 37 39 40 41 41 42 42 43 43
38 39 40 40 41 41 42 42 42 43 43 44 45 45 45 46 46 46 47 48 49 50 52 53 54 55 56 56 56 56 56 55 55 55 55 54 55 55 56 57 58 59 59 59 58 58 58 57 56 55 54 53 52 51 50 50 49 49 49 49 48 47 46 45 43 41 40 38 37 36 35 35 35 35 35 35 36 37 38 39 40 40 41 41 42 43
38 39 40 40 41 42 42 43 43 44 44 45 45 45 45 45 46 47 48 49 51 52 54 55 56 56 57 57 57 56 56 55 55 55 55 55 55 56 57 58 58 59 59 59 58 58 57 57 56 55 53 52 51 50 50 50 49 49 49 48 48 47 46 44 43 41 39 37 36 35 35 35 35 35 35 35 35 36 37 38 39 39 40 40 41 42
38 39 40 41 42 42 43 43 44 44 45 45 45 45 46 46 47 48 49 51 53 54 56 56 57 57 57 57 56 56 55 55 55 55 55 55 56 57 58 58 58 59 58 58 58 57 57 56 56 54 53 52 51 50 50 50 49 49 49 48 47 46 45 44 42 40 38 36 35 35 34 34 34 34 34 34 35 35 36 37 38 38 39 39 40 40
39 40 41 42 42 43 44 44 45 45 45 45 46 46 46 47 48 50 52 53 55 56 57 57 57 57 57 56 56 55 55 55 55 55 55 56 57 57 58 58 58 58 58 58 57 57 56 55 55 54 53 51 50 50 50 50 49 49 49 48 47 46 44 43 41 39 37 36 35 34 34 34 34 34 34 34 34 34 35 35 36 37 38 38 38 38
Wind_Direction
289 291 292 293 294 295 295 296 296 295 295 294 294 294 295 295 296 297 298 299 300 301 301 301 301 301 301 302 302 303 304 305 307 308 309 310 310 311 311 312 312 312 312 312 312 312 312 312 313 314 314 315 316 317 318 318 319 319 320 320 320 320 320 320 319 318 317 314 311 308 304 301 297 294 290 287 283 280 278 275 273 272 270 269 267 265
289 291 292 293 294 294 295 295 295 294 294 294 294 294 295 295 296 297 298 299 299 300 300 301 301 301 302 303 304 305 306 307 307 308 309 310 310 311 311 311 312 311 311 311 311 311 311 311 312 312 313 314 314 315 316 316 317 317 317 317 318 318 318 318 318 317 316 315 313 311 308 305 301 297 293 289 286 282 279 276 274 272 271 270 269 267
290 291 292 293 293 294 294 294 294 293 293 293 293 294 294 295 296 297 298 298 299 299 300 300 301 302 303 304 305 306 307 308 309 309 310 310 311 311 311 312 312 312 312 312 311 311 311 311 311 312 312 312 313 313 314 314 315 315 315 315 316 316 316 316 316 315 315 314 313 311 310 307 304 300 296 292 288 285 281 278 275 273 271 269 268 267
290 291 292 293 293 293 293 294 293 293 293 292 293 293 294 295 296 297 297 298 298 299 299 300 301 302 303 304 305 306 307 308 309 309 310 310 311 311 311 311 311 311 311 311 311 311 310 310 310 310 311 311 311 311 312 312 312 313 313 313 314 314 314 314 314 313 313 312 311 310 309 307 305 302 299 295 291 287 283 280 277 274 272 270 268 267
290 291 292 293 293 293 293 293 293 292 292 292 293 293 294 295 295 296 297 297 298 298 299 299 300 301 303 304 305 306 307 307 308 309 309 309 310 310 310 310 310 310 310 310 310 309 309 309 309 309 309 309 309 309 309 310 310 310 311 311 312 312 312 312 312 312 311 311 310 309 307 306 304 302 300 298 294 290 286 282 279 276 273 271 269 267
291 291 292 293 293 293 293 293 292 292 292 292 292 293 294 294 295 296 297 297 298 298 299 299 300 301 303 304 305 305 306 307 307 308 308 308 309 309 309 309 309 309 309 308 308 308 308 307 307 307 307 307 307 307 307 307 308 308 309 309 310 310 311 311 311 311 310 310 309 308 306 305 303 302 300 298 295 293 289 286 282 278 274 272 269 268
291 292 292 293 293 293 293 292 292 292 292 292 292 293 293 294 295 296 296 297 297 298 298 299 300 301 303 304 305 305 306 306 307 307 308 308 308 308 308 308 308 308 308 308 307 307 307 306 306 306 306 306 306 306 306 306 306 307 307 308 308 309 309 310 310 310 309 309 308 307 305 304 302 301 299 297 295 293 291 288 284 281 277 274 271 268
291 292 292 292 293 293 292 292 292 291 291 292 292 293 293 294 295 296 296 297 297 298 298 299 300 301 302 304 305 305 306 306 307 307 308 308 308 308 308 308 308 308 307 307 307 306 306 306 305 305 305 305 305 305 305 305 305 306 306 307 307 308 308 308 309 309 308 308 307 306 304 303 301 300 298 296 294 292 290 288 286 283 279 276 273 270
291 292 292 292 292 292 292 292 291 291 291 291 292 293 294 294 295 295 296 296 297 297 298 299 300 301 302 303 304 305 306 307 307 307 308 308 308 308 308 308 308 307 307 307 306 306 306 306 305 305 305 305 305 305 305 305 305 305 306 306 307 307 307 308 308 307 307 306 305 304 303 301 300 298 296 295 293 291 289 288 286 283 281 278 275 272
292 292 292 292 292 292 291 291 291 291 291 291 292 293 294 295 295 296 296 296 296 297 297 298 300 301 302 303 304 305 306 306 307 308 308 308 309 309 308 308 308 307 307 307 306 306 306 306 305 305 305 305 305 305 305 305 305 306 306 306 307 307 307 307 307 307 306 305 304 303 301 300 298 296 295 293 291 290 288 287 285 283 281 279 276 273
292 292 292 292 292 291 291 291 291 291 291 292 292 293 294 295 295 296 296 296 296 296 297 298 299 301 302 304 304 305 306 307 307 308 308 308 309 309 308 308 308 307 307 307 306 306 306 306 306 305 305 305 305 306 306 306 306 306 307 307 307 307 307 307 307 306 305 304 303 301 299 298 296 294 292 291 289 288 287 286 284 283 281 279 277 274
292 292 292 291 291 291 291 291 291 291 291 292 293 294 294 295 295 295 295 295 296 296 297 298 299 301 302 304 305 306 306 307 307 308 308 308 309 309 308 308 308 307 307 307 306 306 306 306 306 306 306 306 306 306 306 306 307 307 307 308 308 308 308 307 306 306 304 303 302 300 298 296 294 292 290 289 287 286 285 284 283 282 281 279 277 275
292 292 292 291 291 291 291 291 291 291 292 293 293 294 294 294 295 295 295 295 295 296 297 298 300 301 302 303 305 305 306 307 307 308 308 308 309 309 309 308 308 308 307 307 307 307 307 307 307 307 307 306 306 307 307 307 307 308 308 308 308 308 307 307 306 305 304 302 301 299 297 295 293 291 289 287 286 285 284 283 282 282 281 279 278 276
292 292 292 291 291 291 291 291 291 292 292 293 293 294 294 294 294 295 295 295 295 296 297 298 300 301 302 303 304 305 306 306 307 307 308 308 309 309 309 308 308 308 308 308 307 307 307 308 308 307 307 307 307 307 308 308 308 308 308 308 308 308 307 307 306 305 303 302 300 298 296 294 292 290 288 287 285 284 283 282 282 281 280 279 278 276
292 292 291 291 291 291 291 291 291 292 292 293 293 294 294 294 294 294 295 295 296 296 297 298 299 300 302 303 304 305 305 306 306 307 308 308 309 309 309 309 308 308 308 308 308 308 308 308 308 308 308 308 308 308 308 309 309 309 309 308 308 308 307 306 305 304 303 301 299 297 295 293 291 290 288 287 285 284 283 282 281 281 280 279 278 276
292 291 291 290 291 291 291 291 291 292 292 293 293 294 294 294 294 294 295 295 296 297 297 298 299 300 301 302 303 304 305 305 306 307 307 308 308 309 309 309 309 309 309 309 309 309 309 309 309 309 309 309 309 309 309 309 309 309 309 309 308 308 307 306 305 304 302 300 298 297 295 293 291 290 288 287 286 285 284 283 282 281 280 279 278 276
291 291 290 290 290 290 291 291 291 292 293 293 293 294 294 294 294 295 295 295 296 297 297 298 299 300 301 302 302 303 304 305 305 306 307 308 308 308 308 309 309 309 309 309 310 310 310 310 310 310 310 310 310 310 310 310 310 310 310 309 309 308 307 306 305 303 302 300 298 296 295 293 292 290 289 288 287 286 285 283 282 281 280 279 278 276
291 290 290 290 290 290 291 291 291 292 293 293 294 294 294 294 294 295 295 296 296 297 297 298 299 300 301 301 302 303 304 304 305 306 306 307 308 308 308 309 309 309 310 310 310 310 310 310 310 310 310 310 311 311 311 311 311 311 310 310 309 308 307 306 304 303 301 300 298 296 295 294 292 291 290 289 288 287 285 284 283 281 280 279 278 276
290 290 290 290 290 290 291 291 292 292 293 293 294 294 294 294 294 295 295 295 296 296 297 298 298 299 300 301 302 303 303 304 305 306 306 307 307 308 308 309 309 310 310 311 311 311 310 310 310 310 311 311 311 312 312 312 312 311 311 310 309 308 307 306 304 303 301 299 298 296 295 294 293 292 291 290 288 287 286 284 283 282 280 279 278 276
290 290 290 290 290 291 291 291 292 292 293 293 293 294 294 294 294 294 295 295 296 296 297 297 298 299 300 301 302 302 303 304 305 305 306 307 307 308 309 309 309 310 310 311 311 311 311 310 310 311 311 311 312 312 312 312 312 312 311 310 310 308 307 305 304 302 301 299 298 297 296 295 294 293 291 290 289 288 286 285 283 282 280 279 278 276
290 290 290 290 291 291 291 292 292 292 293 293 293 293 294 294 294 294 295 295 295 296 296 297 298 298 299 300 301 302 303 304 305 305 306 306 307 308 309 309 309 310 310 311 311 311 310 310 311 311 311 312 312 313 313 313 313 312 311 311 310 308 307 305 304 302 300 299 298 297 296 295 294 293 292 290 289 287 286 285 283 282 280 279 278 276
290 290 290 291 291 291 292 292 292 293 293 293 293 293 294 294 294 294 294 295 295 296 296 297 297 298 299 300 301 302 303 304 305 305 306 307 307 308 308 309 309 309 310 310 311 310 310 310 311 311 312 312 313 313 313 313 313 312 311 311 309 308 307 305 303 302 300 299 298 297 296 295 294 293 292 290 289 287 286 284 283 281 280 279 277 276
290 291 291 291 291 291 292 292 293 293 293 293 293 294 294 294 294 294 295 295 295 296 296 297 297 298 299 300 301 302 303 304 305 305 306 307 307 308 308 309 309 309 310 310 310 310 310 310 311 311 312 312 313 313 313 313 313 312 311 310 309 308 306 304 303 301 300 299 298 297 296 295 294 293 291 290 288 286 285 283 282 281 279 278 277 276
291 291 291 292 292 292 292 293 293 293 294 294 294 294 294 294 294 295 295 295 296 296 297 297 298 298 299 300 301 302 303 304 304 305 306 306 307 307 308 308 309 309 309 310 310 310 311 311 311 312 312 313 313 313 313 313 312 312 311 310 309 307 306 304 302 301 300 299 298 297 296 295 294 292 291 289 287 286 284 283 281 280 279 278 277 276
292 292 292 292 293 293 293 294 294 294 294 294 294 294 294 295 295 295 295 296 297 297 297 298 299 299 300 300 301 302 303 303 304 305 305 306 306 307 307 308 308 309 309 310 310 311 311 311 311 312 312 313 313 313 313 313 312 311 311 309 308 307 305 303 302 301 300 299 298 297 296 295 293 292 290 288 286 285 283 282 281 280 279 278 277 276
292 293 293 293 294 294 294 294 295 295 295 295 295 295 295 295 296 296 296 297 297 298 298 299 299 300 300 301 302 302 303 303 304 305 305 306 306 307 307 308 308 309 309 310 310 311 311 311 312 312 313 313 313 313 313 312 312 311 310 309 308 306 305 303 302 300 300 299 298 297 296 295 293 291 289 287 286 284 282 281 280 279 279 278 277 276
294 294 294 294 294 295 295 295 295 295 295 295 295 296 296 296 297 297 297 298 298 299 299 299 300 300 301 301 302 302 303 304 304 305 305 306 306 307 307 308 308 309 309 310 311 311 311 311 312 312 313 313 313 313 313 312 311 311 310 308 307 306 304 303 301 300 300 299 298 297 296 294 293 291 289 287 285 283 282 281 280 279 279 278 277 277
295 295 295 295 295 295 295 295 295 295 295 295 295 296 296 297 297 298 298 298 299 299 299 300 300 301 301 302 302 303 303 304 305 305 305 306 306 307 308 308 309 309 310 310 311 311 311 312 312 313 313 313 313 313 312 312 311 310 309 308 307 305 304 302 301 300 300 299 298 297 296 294 292 290 288 286 284 283 281 281 280 280 279 279 278 277
295 296 295 295 295 295 295 295 295 295 295 295 295 296 297 297 298 298 298 299 299 299 300 300 301 301 302 302 303 303 304 304 305 305 306 306 307 307 308 308 309 309 310 310 311 311 312 312 313 313 313 313 313 312 312 311 311 310 309 307 306 305 303 302 301 300 299 299 298 297 295 293 291 289 287 285 283 282 281 281 280 280 279 279 278 278
296 296 296 296 295 295 295 295 295 295 295 295 296 296 297 297 298 298 298 299 299 300 300 301 301 302 302 303 303 304 304 305 305 306 306 307 307 308 308 309 309 310 310 311 311 311 312 312 313 313 313 313 313 312 312 311 310 309 308 307 305 304 303 302 301 300 299 299 298 296 295 293 290 288 286 284 283 282 281 281 280 280 280 279 279 278
296 296 296 296 295 295 295 295 295 295 295 295 296 296 297 297 298 298 298 299 300 300 301 301 302 302 303 303 304 305 305 305 306 306 307 307 308 308 309 310 310 310 311 311 311 312 312 312 313 313 313 313 313 312 311 311 310 309 308 306 305 303 302 301 301 300 299 299 297 296 294 292 289 287 285 284 282 282 281 281 281 280 280 280 279 278
296 296 296 296 295 295 295 295 295 295 295 295 296 296 297 297 298 298 298 299 300 300 301 302 302 303 303 304 304 305 306 306 307 307 308 308 309 309 310 310 310 311 311 311 311 312 312 312 313 313 313 313 312 312 311 310 309 308 307 305 304 303 302 301 301 300 299 298 297 296 293 291 289 286 284 283 282 282 281 281 281 281 280 280 279 279
296 296 296 296 296 295 295 295 295 295 295 296 296 296 297 297 297 298 299 299 300 300 301 302 302 303 303 304 304 305 306 306 307 308 308 309 309 310 310 310 311 311 311 312 312 312 312 313 313 313 313 313 312 312 311 310 309 308 306 305 303 302 302 301 301 300 299 298 297 295 293 290 288 286 284 283 282 282 281 281 281 281 281 280 280 279
296 296 296 296 295 295 295 295 295 295 295 296 296 296 297 297 298 298 298 299 299 300 301 302 302 303 304 304 305 305 306 307 307 308 309 309 310 310 310 311 311 311 311 312 312 312 312 313 313 313 313 313 312 312 311 310 309 307 306 304 303 302 301 301 301 300 299 298 297 295 292 289 287 285 283 282 282 282 282 281 281 281 281 281 280 280
296 296 296 296 296 295 295 295 295 295 295 295 296 296 297 297 297 298 298 299 299 300 300 301 302 303 304 305 305 306 306 307 307 308 309 309 310 310 311 311 311 311 312 312 312 312 313 313 313 313 313 313 312 311 311 310 308 307 306 304 303 302 301 301 301 300 299 298 296 294 291 289 286 284 283 282 282 282 282 282 282 281 281 281 281 280
296 296 296 296 296 296 295 295 295 295 295 295 296 296 296 297 297 298 298 298 299 300 300 301 302 303 304 305 305 306 307 307 308 308 309 309 310 311 311 311 311 312 312 312 312 313 313 313 313 313 313 312 312 311 310 309 308 306 305 304 303 302 301 301 301 300 299 298 296 293 290 288 285 283 282 282 281 281 281 281 282 282 281 281 280 280
296 296 296 296 296 296 296 296 296 296 296 295 296 296 296 296 297 297 298 298 299 300 301 301 302 303 304 305 305 306 306 307 308 308 309 310 310 311 311 311 311 312 312 312 312 313 313 313 313 313 313 312 311 310 309 308 307 306 305 304 303 302 301 301 301 300 299 297 295 292 289 286 284 282 281 281 281 281 281 282 282 282 282 281 280 279
296 297 297 297 297 297 297 297 296 296 296 296 296 296 296 296 297 297 298 298 299 300 301 302 303 304 304 305 305 306 306 307 308 308 309 310 310 311 311 311 311 312 312 312 313 313 313 313 313 313 313 312 311 310 309 308 306 306 305 304 303 302 302 302 301 300 299 297 294 291 288 285 283 281 281 280 281 281 282 282 282 282 282 281 280 279
296 297 297 297 297 297 297 297 297 296 296 296 296 296 296 296 297 297 298 299 300 301 302 302 303 304 304 305 305 306 306 307 308 308 309 310 310 311 311 311 311 312 312 313 313 313 313 313 313 313 312 312 311 310 308 307 306 305 305 304 304 303 303 303 302 300 299 296 294 291 287 285 282 281 280 280 281 281 282 283 283 283 283 282 281 280
296 296 297 297 297 297 297 297 297 296 296 296 296 296 297 297 297 298 299 300 301 302 302 303 304 304 304 305 305 306 307 307 308 309 309 310 310 311 311 311 311 312 312 313 313 313 313 313 313 313 312 311 310 309 308 307 306 305 304 304 304 304 304 303 302 301 299 297 294 290 287 284 282 280 280 280 281 282 283 284 284 285 284 283 282 281
295 296 296 297 297 297 297 297 297 296 296 296 296 297 297 298 298 299 300 301 302 302 303 303 304 304 304 305 306 306 307 307 308 309 309 310 310 311 311 311 312 312 312 313 313 313 314 313 313 313 312 311 310 309 307 306 305 305 304 304 304 304 304 304 303 302 300 298 294 291 287 284 282 280 280 280 281 282 284 285 286 286 285 285 283 282
295 296 296 297 297 297 297 297 297 297 297 297 297 298 298 299 300 301 301 302 303 303 304 304 304 304 305 305 306 306 307 308 308 309 309 310 310 311 311 311 312 312 313 313 313 313 314 314 313 313 312 311 310 308 307 306 305 305 305 305 305 304 304 304 303 302 300 298 295 291 288 285 282 281 281 281 282 283 284 285 286 286 286 285 284 282
295 296 296 296 297 297 297 297 297 297 297 298 298 299 300 301 301 302 303 303 304 304 304 305 305 305 305 306 306 307 307 308 308 309 309 310 310 310 311 311 311 312 312 313 313 313 314 313 313 313 312 311 310 308 307 306 305 305 305 305 305 305 304 304 303 302 301 298 296 292 289 286 284 282 282 282 283 284 285 286 287 287 287 286 285 283
295 296 296 297 297 297 297 297 297 298 298 299 299 300 301 302 303 304 304 304 305 305 305 306 306 306 306 306 307 307 307 307 308 308 309 309 310 310 310 311 311 312 312 313 313 313 314 313 313 313 312 311 309 308 307 306 305 305 305 305 305 305 304 304 303 302 300 298 296 293 290 287 285 283 283 283 284 285 287 288 288 289 288 288 286 285
296 296 296 297 297 297 297 298 298 298 299 300 301 302 303 304 304 304 305 305 305 306 306 306 307 307 307 307 307 307 307 307 308 308 308 309 309 309 310 310 311 312 312 313 313 313 313 313 313 313 312 311 309 308 307 306 306 305 305 305 305 305 305 304 303 302 300 298 295 293 290 288 286 285 285 285 286 287 289 290 290 291 290 290 288 287
296 296 297 297 297 297 298 298 299 299 300 301 302 303 304 304 305 305 305 305 306 306 307 307 307 307 307 307 307 307 307 307 308 308 308 308 309 309 310 310 311 311 312 312 312 313 313 313 313 312 312 311 309 308 307 306 306 306 305 306 306 305 305 304 303 302 300 297 295 292 290 288 286 286 286 287 288 290 291 292 293 293 292 291 290 289
296 296 297 297 298 298 298 299 299 300 301 302 303 303 304 304 304 305 305 306 306 307 307 308 308 308 308 308 307 307 307 308 308 308 308 308 309 309 310 310 311 311 312 312 312 312 312 312 312 312 311 310 309 308 307 307 306 306 306 306 306 306 305 305 303 302 299 296 294 291 289 288 287 287 288 289 290 292 293 294 295 294 294 293 292 291
297 297 298 299 299 299 299 300 300 301 302 302 303 303 303 304 304 304 305 306 307 307 308 308 308 308 308 308 308 308 308 308 308 308 308 309 309 310 310 310 311 311 311 312 312 312 312 312 312 312 311 310 309 308 308 307 307 307 307 307 307 306 306 305 303 301 299 296 293 291 289 288 287 288 289 290 292 294 295 296 296 296 295 294 294 293
299 299 300 300 300 300 300 301 301 302 302 302 303 303 303 303 304 304 305 306 307 307 308 308 308 308 308 308 308 308 308 308 308 308 309 309 310 310 310 311 311 311 311 311 311 312 312 312 312 311 311 310 309 308 308 307 307 307 307 307 307 307 306 305 303 301 298 295 292 290 288 288 288 289 290 292 294 296 297 298 298 297 297 296 295 295
301 301 301 301 301 301 301 301 302 302 302 302 302 303 303 303 303 304 305 306 307 307 308 308 308 308 308 308 308 308 308 308 309 309 309 310 310 310 311 311 311 311 311 312 312 312 312 312 312 311 310 310 309 309 308 308 308 308 308 308 308 307 306 304 302 300 297 294 292 290 289 288 289 290 291 294 296 298 299 299 299 298 298 297 297 297
302 302 302 302 302 302 302 302 302 302 302 302 302 302 303 303 303 304 305 306 307 307 308 308 308 307 307 308 308 308 308 309 309 309 310 310 311 311 311 312 312 312 312 312 312 312 312 312 311 311 310 310 309 309 308 308 308 308 308 308 308 307 306 304 301 299 296 293 291 289 288 288 289 291 292 295 297 299 300 300 300 299 299 298 299 299